| time (UTC) | temp F | wind direction | speed MPH | gust MPH | rain 1hr in | rain 24hr in | rain mn in | humidity % | barometer mb |
| 20260505094004 | 56 | 108 | 0.0 | 1.0 | 0.00 | 0.00 | 0.00 | 76 | 1009.3 |
| 20260505093003 | 57 | 116 | 0.0 | 4.0 | 0.00 | 0.00 | 0.00 | 76 | 1009.4 |
| 20260505091003 | 57 | 138 | 0.0 | 1.0 | 0.00 | 0.00 | 0.00 | 75 | 1009.3 |
| 20260505090003 | 57 | 173 | 0.0 | 4.0 | 0.00 | 0.00 | 0.00 | 75 | 1009.3 |
| 20260505084004 | 57 | 136 | 0.0 | 2.0 | 0.00 | 0.00 | 0.00 | 75 | 1009.2 |
| 20260505083004 | 57 | 97 | 0.0 | 2.0 | 0.00 | 0.00 | 0.00 | 76 | 1009.0 |
| 20260505082003 | 57 | 109 | 0.0 | 1.0 | 0.00 | 0.00 | 0.00 | 76 | 1009.0 |
| 20260505081004 | 56 | 84 | 0.0 | 1.0 | 0.00 | 0.00 | 0.00 | 76 | 1009.0 |
| 20260505080003 | 56 | 95 | 0.0 | 1.0 | 0.00 | 0.00 | 0.00 | 77 | 1009.2 |
| 20260505075003 | 54 | 127 | 0.0 | 1.0 | 0.00 | 0.00 | 0.00 | 81 | 1009.0 |
| 20260505074003 | 54 | 0 | 0.0 | 0.0 | 0.00 | 0.00 | 0.00 | 80 | 1009.0 |
| 20260505073002 | 54 | 0 | 0.0 | 0.0 | 0.00 | 0.00 | 0.00 | 79 | 1008.8 |
| 20260505072002 | 54 | 0 | 0.0 | 0.0 | 0.00 | 0.00 | 0.00 | 79 | 1008.9 |
| 20260505071003 | 55 | 0 | 0.0 | 0.0 | 0.00 | 0.00 | 0.00 | 78 | 1008.9 |
| 20260505070003 | 55 | 127 | 0.0 | 1.0 | 0.00 | 0.00 | 0.00 | 77 | 1009.0 |
| 20260505065003 | 55 | 0 | 0.0 | 0.0 | 0.00 | 0.00 | 0.00 | 76 | 1009.1 |
| 20260505064003 | 55 | 0 | 0.0 | 0.0 | 0.00 | 0.00 | 0.00 | 76 | 1009.1 |
| 20260505063002 | 55 | 127 | 0.0 | 1.0 | 0.00 | 0.00 | 0.00 | 77 | 1009.2 |
| 20260505062002 | 55 | 0 | 0.0 | 0.0 | 0.00 | 0.00 | 0.00 | 77 | 1009.3 |
| 20260505061002 | 55 | 0 | 0.0 | 0.0 | 0.00 | 0.00 | 0.00 | 77 | 1009.2 |
| 20260505060003 | 55 | 0 | 0.0 | 0.0 | 0.00 | 0.00 | 0.00 | 76 | 1009.1 |
| 20260505055002 | 55 | 0 | 0.0 | 0.0 | 0.00 | 0.00 | 0.00 | 76 | 1009.3 |
| 20260505054002 | 55 | 0 | 0.0 | 0.0 | 0.00 | 0.00 | 0.00 | 75 | 1009.3 |
| 20260505053003 | 54 | 0 | 0.0 | 0.0 | 0.00 | 0.00 | 0.00 | 76 | 1009.0 |
| 20260505051002 | 55 | 0 | 0.0 | 0.0 | 0.00 | 0.00 | 0.00 | 74 | 1009.2 |
| 20260505041003 | 59 | 325 | 0.0 | 2.0 | 0.00 | 0.00 | 0.00 | 65 | 1009.2 |
| 20260505040004 | 60 | 203 | 0.0 | 2.0 | 0.00 | 0.00 | 0.00 | 63 | 1009.1 |
| 20260505035002 | 61 | 218 | 0.0 | 2.0 | 0.00 | 0.00 | 0.00 | 61 | 1009.0 |
| 20260505033002 | 62 | 189 | 2.0 | 8.0 | 0.00 | 0.00 | 0.00 | 59 | 1008.8 |
| 20260505024002 | 62 | 172 | 1.0 | 5.0 | 0.00 | 0.00 | 0.00 | 57 | 1008.8 |
| 20260505023003 | 62 | 185 | 1.0 | 6.0 | 0.00 | 0.00 | 0.00 | 56 | 1008.9 |
| 20260505022002 | 63 | 183 | 1.0 | 5.0 | 0.00 | 0.00 | 0.00 | 56 | 1008.9 |
| 20260505021003 | 63 | 155 | 2.0 | 6.0 | 0.00 | 0.00 | 0.00 | 55 | 1008.8 |
| 20260505020002 | 64 | 143 | 2.0 | 12.0 | 0.00 | 0.00 | 0.00 | 54 | 1009.0 |
| 20260505014002 | 64 | 195 | 2.0 | 8.0 | 0.00 | 0.00 | 0.00 | 53 | 1009.0 |
| 20260505013003 | 64 | 170 | 1.0 | 4.0 | 0.00 | 0.00 | 0.00 | 52 | 1009.1 |
| 20260505012002 | 64 | 157 | 2.0 | 8.0 | 0.00 | 0.00 | 0.00 | 51 | 1008.9 |
| 20260505011003 | 65 | 173 | 2.0 | 10.0 | 0.00 | 0.00 | 0.00 | 49 | 1008.8 |
| 20260505010003 | 65 | 171 | 4.0 | 11.0 | 0.00 | 0.00 | 0.00 | 49 | 1008.6 |
| 20260505005003 | 65 | 160 | 2.0 | 14.0 | 0.00 | 0.00 | 0.00 | 48 | 1008.6 |
| 20260505004003 | 65 | 157 | 2.0 | 11.0 | 0.00 | 0.00 | 0.00 | 48 | 1008.5 |
| 20260505003003 | 66 | 155 | 2.0 | 11.0 | 0.00 | 0.00 | 0.00 | 48 | 1008.5 |
| 20260505002002 | 66 | 143 | 2.0 | 9.0 | 0.00 | 0.00 | 0.00 | 48 | 1008.4 |
| 20260505001002 | 66 | 176 | 2.0 | 9.0 | 0.00 | 0.00 | 0.00 | 47 | 1008.3 |
| 20260505000002 | 67 | 173 | 4.0 | 14.0 | 0.00 | 0.00 | 0.00 | 47 | 1008.3 |
| 20260504235002 | 68 | 181 | 4.0 | 11.0 | 0.00 | 0.00 | 0.00 | 46 | 1008.3 |
| 20260504234003 | 68 | 167 | 4.0 | 11.0 | 0.00 | 0.00 | 0.00 | 45 | 1008.2 |
| 20260504233003 | 68 | 164 | 4.0 | 10.0 | 0.00 | 0.00 | 0.00 | 45 | 1008.1 |
| 20260504230002 | 70 | 168 | 6.0 | 16.0 | 0.00 | 0.00 | 0.00 | 43 | 1008.1 |
| 20260504225003 | 70 | 168 | 5.0 | 21.0 | 0.00 | 0.00 | 0.00 | 42 | 1008.0 |
| 20260504224004 | 71 | 176 | 6.0 | 18.0 | 0.00 | 0.00 | 0.00 | 41 | 1008.1 |
| 20260504221003 | 73 | 187 | 6.0 | 15.0 | 0.00 | 0.00 | 0.00 | 38 | 1008.0 |
| 20260504215002 | 74 | 185 | 4.0 | 14.0 | 0.00 | 0.00 | 0.00 | 36 | 1008.0 |
| 20260504214002 | 74 | 190 | 5.0 | 11.0 | 0.00 | 0.00 | 0.00 | 36 | 1008.0 |
| 20260504213002 | 75 | 192 | 4.0 | 14.0 | 0.00 | 0.00 | 0.00 | 36 | 1007.9 |
| 20260504212003 | 74 | 207 | 4.0 | 10.0 | 0.00 | 0.00 | 0.00 | 38 | 1008.1 |
| 20260504211002 | 74 | 207 | 4.0 | 11.0 | 0.00 | 0.00 | 0.00 | 37 | 1008.0 |
| 20260504210002 | 74 | 204 | 4.0 | 12.0 | 0.00 | 0.00 | 0.00 | 40 | 1008.1 |
| 20260504205002 | 75 | 198 | 5.0 | 12.0 | 0.00 | 0.00 | 0.00 | 36 | 1008.2 |
| 20260504203002 | 74 | 188 | 5.0 | 10.0 | 0.00 | 0.00 | 0.00 | 38 | 1008.3 |
| 20260504202003 | 74 | 216 | 4.0 | 14.0 | 0.00 | 0.00 | 0.00 | 37 | 1008.5 |
| 20260504201003 | 74 | 209 | 5.0 | 16.0 | 0.00 | 0.00 | 0.00 | 38 | 1008.7 |
| 20260504195003 | 72 | 199 | 5.0 | 15.0 | 0.00 | 0.00 | 0.00 | 38 | 1008.9 |
| 20260504194002 | 72 | 200 | 6.0 | 16.0 | 0.00 | 0.00 | 0.00 | 40 | 1009.0 |
| 20260504193002 | 72 | 202 | 5.0 | 15.0 | 0.00 | 0.00 | 0.00 | 37 | 1009.3 |
| 20260504192002 | 72 | 204 | 6.0 | 15.0 | 0.00 | 0.00 | 0.00 | 39 | 1009.3 |
| 20260504191003 | 72 | 204 | 5.0 | 12.0 | 0.00 | 0.00 | 0.00 | 36 | 1009.3 |
| 20260504190003 | 72 | 203 | 4.0 | 12.0 | 0.00 | 0.00 | 0.00 | 38 | 1009.5 |
| 20260504185003 | 72 | 217 | 5.0 | 10.0 | 0.00 | 0.00 | 0.00 | 36 | 1009.7 |
| 20260504184002 | 72 | 188 | 5.0 | 14.0 | 0.00 | 0.00 | 0.00 | 38 | 1009.7 |
| 20260504183002 | 72 | 223 | 5.0 | 11.0 | 0.00 | 0.00 | 0.00 | 39 | 1009.9 |
| 20260504182002 | 72 | 215 | 4.0 | 10.0 | 0.00 | 0.00 | 0.00 | 39 | 1010.0 |
| 20260504181003 | 72 | 206 | 4.0 | 11.0 | 0.00 | 0.00 | 0.00 | 43 | 1010.1 |
| 20260504180002 | 71 | 215 | 5.0 | 14.0 | 0.00 | 0.00 | 0.00 | 39 | 1010.2 |
| 20260504175003 | 71 | 223 | 5.0 | 15.0 | 0.00 | 0.00 | 0.00 | 40 | 1010.2 |
| 20260504174003 | 71 | 183 | 5.0 | 11.0 | 0.00 | 0.00 | 0.00 | 38 | 1010.4 |
| 20260504151003 | 65 | 201 | 4.0 | 14.0 | 0.00 | 0.00 | 0.00 | 44 | 1012.5 |